Home > Weather > Atlanta > Past weeks

Flag for USA Past Weather in Atlanta, Georgia, USA — Yesterday and Last 2 Weeks

Now
63 °F

Sunny.


Feels Like: 63 °F
Forecast: 61 / 87 °F
Wind: No wind

Location: Fulton County Airport-Brown Field

Current Time: May 25, 2016 at 9:12:27 AM

Latest Report: May 25, 2016 at 7:53 AM


Visibility: 10 mi

Pressure: 30.18 "Hg

Humidity: 81%

Dew Point: 57 °F

Location of AtlantaLocation

Past Weather in Atlanta — Graph

°F

Atlanta Temperature Yesterday

Maximum temperature yesterday: 85 °F (at 4:53 PM)
Minimum temperature yesterday: 55 °F (at 6:53 AM)
Average temperature yesterday: 70 °F

High & Low Weather Summary for the Past Weeks

 TemperatureHumidityPressure
High85 °F (May 11, 3:53 PM)97% (May 21, 8:53 AM)30.21 "Hg (May 21, 8:53 AM)
Low47 °F (May 16, 5:53 AM)24% (May 15, 2:53 PM)29.90 "Hg (May 14, 5:53 PM)
Average68 °F66%30.04 "Hg
* Reported May 10 6:53 AM — May 25 6:53 AM, Atlanta, Weather by CustomWeather, © 2016

Note: Actual official high and low records may vary slightly from our data, if they occured in-between our weather recording intervals... More about our weather records

Advertising

Atlanta Weather History for the Previous 24 Hours

Scroll right to see more
 ConditionsComfort  
Time TempWeatherWind HumidityBarometerVisibility
6:53 AM
Wed, May 25
58 °FClear.No wind90%30.17 "Hg9 mi
5:53 AM58 °FClear.No wind90%30.15 "Hg9 mi
4:53 AM59 °FClear.No wind90%30.15 "Hg10 mi
3:53 AM60 °FClear.No wind86%30.15 "Hg10 mi
2:53 AM62 °FClear.No wind83%30.15 "Hg10 mi
1:53 AM61 °FClear.No wind87%30.15 "Hg10 mi
12:53 AM63 °FClear.No wind81%30.15 "Hg10 mi
11:53 PM
Tue, May 24
64 °FClear.No wind81%30.15 "Hg10 mi
10:53 PM65 °FClear.No wind78%30.15 "Hg10 mi
9:53 PM68 °FClear.No wind68%30.12 "Hg10 mi
8:53 PM73 °FSunny.No wind57%30.11 "Hg10 mi
7:53 PM82 °FSunny.5 mph33%30.09 "Hg10 mi
6:53 PM83 °FSunny.7 mph30%30.10 "Hg10 mi
5:53 PM84 °FSunny.3 mph31%30.08 "Hg10 mi
4:53 PM85 °FPassing clouds.3 mph30%30.08 "Hg10 mi
3:53 PM83 °FSunny.5 mph31%30.10 "Hg10 mi
2:53 PM82 °FPassing clouds.9 mph33%30.12 "Hg10 mi
1:53 PM81 °FPassing clouds.3 mph33%30.13 "Hg10 mi
12:53 PM81 °FPassing clouds.6 mph42%30.14 "Hg10 mi
11:53 AM77 °FSunny.5 mph52%30.15 "Hg10 mi
10:53 AM73 °FSunny.3 mph55%30.15 "Hg10 mi
9:53 AM68 °FPassing clouds.5 mph61%30.15 "Hg10 mi
Weather by CustomWeather, © 2016

See weather overviewHow to use our weather pages